Regional Weather Roundup
Issued by NWS Upton, NY

Home | Current Version | Previous Version | Text Only | Print | Product List | Glossary On
Versions: 1 2 3 4 5 6 7 8 9 10 11 12 13 14 15 16 17 18 19 20 21 22 23 24 25 26 27 28
000
ASUS41 KOKX 251715
RWROKX

REGIONAL WEATHER ROUNDUP
NATIONAL WEATHER SERVICE NEW YORK NY
100 PM EDT MON SEP 25 2017

NOTE: "FAIR" INDICATES FEW OR NO CLOUDS BELOW 12,000 FEET WITH NO
SIGNIFICANT WEATHER AND/OR OBSTRUCTIONS TO VISIBILITY.

NYZ071-072-176-178-NJZ106-104-251800-
NEW YORK CITY METRO AREA

CITY           SKY/WX    TMP DP  RH WIND       PRES   REMARKS
Central Park   SUNNY     85  67  54 NE6       30.08F
Bronx Bot Gard   N/A     82  66  57 E1        30.07F
LaGuardia APRT MOSUNNY   82  68  62 NE9       30.05F
Kennedy INTL   MOSUNNY   83  63  50 S8        30.07S
Breezy Point     N/A     75 N/A N/A SE7         N/A
Newark/Liberty MOSUNNY   89  67  47 NE6       30.04F HX  92
Teterboro      SUNNY     86  68  54 VRB3      30.04F
$$

NYZ177-179-078>081-251800-
LONG ISLAND NEW YORK

CITY           SKY/WX    TMP DP  RH WIND       PRES   REMARKS
Jones Beach      N/A     73 N/A N/A S8          N/A
Matinecock PT    N/A     75 N/A N/A E8          N/A
Farmingdale    SUNNY     84  63  49 S7        30.06S
MacArthur/ISP  SUNNY     82  63  52 S7        30.06S
Shirley        SUNNY     84  67  56 S6        30.07S
Mt Sinai Harb    N/A     77 N/A N/A NE3         N/A
Westhampton    SUNNY     78  65  63 VRB6      30.09S
East Hampton   FAIR      73  66  77 SE7       30.08R
Montauk          N/A     71  67  87 S5        30.10R
$$

NYZ052-065-067-251800-
HUDSON VALLEY

CITY           SKY/WX    TMP DP  RH WIND       PRES   REMARKS
White Plains   MOSUNNY   85  68  56 SE5       30.07F
Larchmont Harb   N/A     73 N/A N/A NE6         N/A
Croton On Huds   N/A     81 N/A N/A CALM        N/A
Newburgh       SUNNY     88  72  58 CALM      30.09F HX  94
Montgomery     SUNNY     86  71  60 VRB3      30.07F HX  91
Poughkeepsie   SUNNY     85  68  56 CALM      30.05F
Albany         MOSUNNY   85  69  58 NW3       30.08F
$$

NJZ001-105-106-008-010-013-015-019>022-104-251800-
NEW JERSEY

CITY           SKY/WX    TMP DP  RH WIND       PRES   REMARKS
Newark/Liberty MOSUNNY   89  67  47 NE6       30.04F HX  92
Teterboro      SUNNY     86  68  54 VRB3      30.04F
Caldwell       SUNNY     85  71  63 E5        30.06F HX  90
Somerville     NOT AVBL
Linden         FAIR      88  64  43 E8        30.04F
Perth Amboy      N/A     75 N/A N/A SE9         N/A
Sussex         SUNNY     86  71  60 VRB5      30.07F HX  91
Andover          N/A     86  70  58 N3        30.08F HX  90
Trenton        SUNNY     87  70  56 E6        30.04F HX  92
Millville      SUNNY     87  66  49 MISG      30.04F
Atlantic City  SUNNY     84  66  54 E8        30.04F
Wrightstown    SUNNY     85  68  55 CALM      30.02S
Toms River     SUNNY     87  63  44 E8        30.06S
Belmar         SUNNY     81  60  48 E9        30.07S
$$

PAZ047>061-062-071-251800-
EASTERN PENNSYLVANIA

CITY           SKY/WX    TMP DP  RH WIND       PRES   REMARKS
Philadelphia   MOSUNNY   88  67  49 E6        30.04F HX  91
Allentown      SUNNY     88  69  53 NE7       30.07F HX  92
Scranton       SUNNY     89  68  49 VRB6      30.09F HX  93
$$

CTZ002-004>006-009-010-012-RIZ004-006-007-MAZ004-011-015-251800-
SOUTHERN NEW ENGLAND
 IN CT

CITY           SKY/WX    TMP DP  RH WIND       PRES   REMARKS
Bradley INTL   MOSUNNY   89  69  51 VRB5      30.07F HX  93
Hartford       SUNNY     86  70  58 VRB5      30.06F HX  90
Danbury        MOSUNNY   86  70  58 VRB3      30.08F HX  90
Wtrbury/Oxford MOSUNNY   85  69  58 E3        30.10F
Norwalk Harbor   N/A     77 N/A N/A E5          N/A
Bridgeport     SUNNY     78  66  66 E8        30.06F
Meriden        SUNNY     88  67  49 VRB3      30.06F HX  91
New Haven      SUNNY     82  66  58 SE6       30.07F
Chester        FAIR      86  66  51 SE5       30.08F
Groton         SUNNY     74  67  78 S7        30.08R
Wilimantic     SUNNY     88  68  51 W5        30.07S HX  91

 IN RI

CITY           SKY/WX    TMP DP  RH WIND       PRES   REMARKS
Providence     MOSUNNY   83  65  54 S5        30.08S
Block Island   SUNNY     73  66  78 SE5       30.09S
Westerly       SUNNY     75  67  76 SE9       30.09S
 IN MA

CITY           SKY/WX    TMP DP  RH WIND       PRES   REMARKS
Boston         MOSUNNY   77  66  68 E8        30.08S
Worcester      MOSUNNY   82  66  58 SE5       30.12F
Westfield      SUNNY     87  69  54 CALM      30.07F HX  91
Provincetown   SUNNY     77  68  73 SW8       30.09S
Nantucket      CLOUDY    70  68  93 E7        30.08F
$$

ANZ330-335-338-340-345-350-353-355-251800-
COASTAL MARINE OBSERVATIONS


STATION/POSITION TIME  SKY/WX   TEMP    WIND        PRES    VSBY  WAVE
                                AIR SEA DIR/SP/G                  HT/PER
                 (UTC)          (F)     (DEG/KT/KT) (MB)    (MI)  (FT/S)
NY HARB ENTRANCE 1650            73 74   60/  4/  4 1017.2          4/14
20 S FIRE ISLAND 1650            69 69   80/  6/  6 1018.2          6/11
GREAT SOUTH BAY  1630            73 75  160/  6/  8   N/A
23 SSW MONTAUK P 1650            64 67              1018.9          6/15
15 E BARNEGAT LI 1700               72                N/A           4/15
HUDSON CANYON    1650            66 69   50/ 10/ 12 1017.1          8/14
KINGS POINT      1648            79 72   50/  5/  5 1018.6
EXECUTION ROCKS  1700            77      70/  4/  6   N/A
WESTERN LI SOUND NOT AVBL
CENTRAL LI SOUND 1700            72     100/  4/  6   N/A           0
EASTERN LI SOUND NOT AVBL
ROBBINS REEF     1648            76     160/  8/ 10 1018.3
$$


>>>>>>>>>>>>>>>>>>>>>>>>>>>> KEY <<<<<<<<<<<<<<<<<<<<<<<<<<<
>                                                          <
>     SKY/WX - Sky Condition/Present Weather               <
>     TMP    - Temperature in Fahrenheit                   <
>     DP     - Dew Point in Fahrenheit                     <
>     RH     - Relative Humidity in Percent                <
>     WIND   - Direction (from) and Speed in MPH           <
>     PRES   - Mean Sea Level Pressure (inches of Hg)      <
>     WCI    - Wind Chill Index                            <
>     VSB    - VISIBILITY IN MILES                         <
>     HX     - HEAT INDEX                                  <
>     TC     - TEMPERATURE IN CELSIUS                      <
>     VRB    - VARIABLE WIND DIRECTION                     <
>                                                          <
>>>>>>>>>>>>>>>>>>>>>>>>>>>> KEY <<<<<<<<<<<<<<<<<<<<<<<<<<<




USA.gov is the U.S. government's official web portal to all federal, state and local government web resources and services.